Weather History for Mount Sterling, KY

Change the Weather History Date:

Wednesday, February 13, 2013

  Actual Average Record
Temperature  
Mean Temperature 36 °F -  
Max Temperature 39 °F 42 °F 39 °F (2013)
Min Temperature 32 °F 24 °F 26 °F (2014)
Degree Days  
Heating Degree Days 30    
Moisture  
Dew Point 31 °F    
Average Humidity 86    
Maximum Humidity 100    
Minimum Humidity 70    
Precipitation  
Precipitation 0.00 in - - ()
Sea Level Pressure  
Sea Level Pressure 29.83 in    
Wind  
Wind Speed 4 mph (North)    
Max Wind Speed 10 mph    
Max Gust Speed 17 mph    
Visibility 9 miles    
Events Rain , Snow    
Averages and records for this station are not official NWS values.
T = Trace of Precipitation, MM = Missing Value Source: NWS Daily Summary

Daily Weather History Graph

Daily Weather History Graph

Search for Another Location

Airport:

Trip Planner

Search our weather history database for the weather conditions in past years. The results will help you decide how hot, cold, wet, or windy it might be!

Date:

Astronomy

Feb. 13, 2013 Rise Set
Actual Time 7:28 AM EST 6:12 PM EST
Civil Twilight 7:00 AM EST 6:39 PM EST
Nautical Twilight 6:30 AM EST 7:10 PM EST
Astronomical Twilight 5:59 AM EST 7:41 PM EST
Moon 9:01 AM EST (2/13) 10:09 PM EST (2/13)
Length of Visible Light 11h 38m
Length of Day
10h 44m
Waxing Crescent, 13% of the Moon is Illuminated
Feb 13
Waxing Crescent
Feb 17
First Quarter
Feb 25
Full
Mar 4
Last Quarter
Mar 11
New

Hourly Weather History & Observations

Time (EST) Temp. Windchill Dew Point Humidity Pressure Visibility Wind Dir Wind Speed Gust Speed Precip Events Conditions
12:15 AM 32.0 °F - 28.4 °F 87% 29.90 in 10.0 mi Calm Calm - N/A   Clear
12:35 AM 32.0 °F - 30.2 °F 93% 29.89 in 10.0 mi Calm Calm - N/A   Clear
12:55 AM 33.8 °F 30.8 °F 30.2 °F 87% 29.88 in 10.0 mi SE 3.5 mph - N/A   Scattered Clouds
1:15 AM 33.8 °F 30.8 °F 30.2 °F 87% 29.87 in 10.0 mi ENE 3.5 mph - N/A   Mostly Cloudy
1:35 AM 33.8 °F - 30.2 °F 87% 29.87 in 10.0 mi Calm Calm - N/A   Overcast
1:55 AM 33.8 °F 30.8 °F 30.2 °F 87% 29.86 in 10.0 mi ENE 3.5 mph - N/A   Overcast
2:15 AM 33.8 °F - 30.2 °F 87% 29.87 in 10.0 mi Calm Calm - N/A   Overcast
2:35 AM 35.6 °F - 30.2 °F 81% 29.86 in 10.0 mi Calm Calm - N/A   Overcast
2:55 AM 35.6 °F 31.7 °F 30.2 °F 81% 29.85 in 10.0 mi East 4.6 mph - N/A   Overcast
3:15 AM 33.8 °F 30.8 °F 30.2 °F 87% 29.85 in 10.0 mi East 3.5 mph - N/A   Overcast
3:35 AM 35.6 °F 31.7 °F 30.2 °F 81% 29.84 in 10.0 mi East 4.6 mph - N/A   Overcast
3:55 AM 33.8 °F 28.6 °F 32.0 °F 93% 29.83 in 10.0 mi ENE 5.8 mph - N/A   Overcast
4:15 AM 35.6 °F 30.7 °F 30.2 °F 81% 29.82 in 10.0 mi ENE 5.8 mph - N/A   Overcast
4:35 AM 35.6 °F 29.2 °F 30.2 °F 81% 29.79 in 10.0 mi East 8.1 mph - N/A   Overcast
4:55 AM 37.4 °F 32.8 °F 30.2 °F 75% 29.79 in 10.0 mi East 5.8 mph - N/A   Overcast
5:15 AM 37.4 °F 32.1 °F 30.2 °F 75% 29.78 in 10.0 mi ENE 6.9 mph - N/A   Overcast
5:35 AM 37.4 °F 33.8 °F 30.2 °F 75% 29.78 in 10.0 mi NE 4.6 mph - N/A   Overcast
5:55 AM 37.4 °F 31.4 °F 30.2 °F 75% 29.76 in 10.0 mi ENE 8.1 mph - N/A   Overcast
6:15 AM 37.4 °F 32.1 °F 28.4 °F 70% 29.76 in 10.0 mi ENE 6.9 mph - N/A   Overcast
6:35 AM 37.4 °F 32.8 °F 28.4 °F 70% 29.76 in 10.0 mi ENE 5.8 mph - N/A   Overcast
6:55 AM 37.4 °F 31.4 °F 28.4 °F 70% 29.76 in 10.0 mi ENE 8.1 mph - N/A   Overcast
7:15 AM 37.4 °F 32.8 °F 28.4 °F 70% 29.75 in 10.0 mi ENE 5.8 mph - N/A   Overcast
7:35 AM 37.4 °F 33.8 °F 28.4 °F 70% 29.74 in 10.0 mi NE 4.6 mph - N/A   Overcast
7:55 AM 37.4 °F 33.8 °F 28.4 °F 70% 29.75 in 10.0 mi NE 4.6 mph - N/A   Overcast
8:15 AM 37.4 °F 34.9 °F 30.2 °F 75% 29.76 in 10.0 mi NNE 3.5 mph - N/A   Overcast
8:35 AM 35.6 °F 32.8 °F 30.2 °F 81% 29.78 in 10.0 mi NNE 3.5 mph - N/A   Overcast
8:55 AM 35.6 °F 30.7 °F 30.2 °F 81% 29.79 in 10.0 mi NNE 5.8 mph - N/A   Overcast
9:15 AM 37.4 °F 34.9 °F 30.2 °F 75% 29.78 in 10.0 mi NNE 3.5 mph - N/A   Overcast
9:35 AM 37.4 °F 32.1 °F 30.2 °F 75% 29.78 in 10.0 mi NNE 6.9 mph - N/A   Overcast
9:55 AM 37.4 °F 30.8 °F 30.2 °F 75% 29.77 in 10.0 mi NNE 9.2 mph - N/A   Overcast
10:15 AM 37.4 °F 32.8 °F 30.2 °F 75% 29.77 in 10.0 mi North 5.8 mph - N/A   Overcast
10:35 AM 37.4 °F 32.1 °F 30.2 °F 75% 29.76 in 10.0 mi NNE 6.9 mph - N/A   Overcast
10:55 AM 37.4 °F 32.1 °F 30.2 °F 75% 29.76 in 10.0 mi NE 6.9 mph - N/A   Overcast
11:15 AM 39.2 °F 33.6 °F 30.2 °F 70% 29.75 in 10.0 mi NNE 8.1 mph - N/A   Overcast
11:35 AM 39.2 °F 34.2 °F 30.2 °F 70% 29.76 in 10.0 mi North 6.9 mph - N/A   Overcast
11:55 AM 37.4 °F 30.3 °F 32.0 °F 81% 29.77 in 10.0 mi North 10.4 mph 17.3 mph N/A   Drizzle
12:15 PM 33.8 °F 26.4 °F 32.0 °F 93% 29.78 in 4.0 mi North 9.2 mph - N/A Rain Rain
12:35 PM 33.8 °F 26.4 °F 32.0 °F 93% 29.78 in 1.5 mi North 9.2 mph - N/A Snow Light Snow
12:55 PM 32.0 °F 24.2 °F 32.0 °F 100% 29.78 in 0.8 mi North 9.2 mph 16.1 mph N/A Snow Light Snow
1:15 PM 33.8 °F 26.4 °F 32.0 °F 93% 29.78 in 1.5 mi North 9.2 mph 17.3 mph N/A Snow Light Snow
1:35 PM 33.8 °F 27.0 °F 32.0 °F 93% 29.78 in 1.8 mi North 8.1 mph 16.1 mph N/A Snow Light Snow
1:55 PM 33.8 °F 27.0 °F 33.8 °F 100% 29.79 in 2.5 mi NNW 8.1 mph - N/A Rain Light Rain
2:15 PM 33.8 °F 27.0 °F 32.0 °F 93% 29.80 in 1.2 mi NNW 8.1 mph - N/A Snow Light Snow
2:35 PM 33.8 °F 27.0 °F 32.0 °F 93% 29.80 in 1.8 mi North 8.1 mph - N/A Snow Light Snow
2:55 PM 33.8 °F 28.6 °F 32.0 °F 93% 29.80 in 1.8 mi NNW 5.8 mph - N/A Snow Light Snow
3:15 PM 33.8 °F 26.4 °F 32.0 °F 93% 29.81 in 5.0 mi NNW 9.2 mph - N/A Snow Light Snow
3:35 PM 33.8 °F 30.8 °F 32.0 °F 93% 29.81 in 10.0 mi NNW 3.5 mph - N/A Snow Light Snow
3:55 PM 35.6 °F 30.7 °F 32.0 °F 87% 29.82 in 10.0 mi NNW 5.8 mph - N/A Rain Light Rain
4:15 PM 35.6 °F 31.7 °F 33.8 °F 93% 29.82 in 10.0 mi NNW 4.6 mph - N/A   Overcast
4:35 PM 35.6 °F 31.7 °F 32.0 °F 87% 29.82 in 10.0 mi North 4.6 mph - N/A   Overcast
4:55 PM 35.6 °F 31.7 °F 33.8 °F 93% 29.83 in 10.0 mi NW 4.6 mph - N/A   Light Drizzle
5:15 PM 35.6 °F 32.8 °F 32.0 °F 87% 29.84 in 10.0 mi NW 3.5 mph - N/A   Overcast
5:35 PM 35.6 °F 31.7 °F 32.0 °F 87% 29.86 in 10.0 mi NNW 4.6 mph - N/A   Overcast
5:55 PM 35.6 °F 32.8 °F 32.0 °F 87% 29.86 in 10.0 mi NW 3.5 mph - N/A   Overcast
6:15 PM 35.6 °F - 32.0 °F 87% 29.87 in 10.0 mi Calm Calm - N/A   Overcast
6:35 PM 33.8 °F 29.6 °F 32.0 °F 93% 29.88 in 10.0 mi WNW 4.6 mph - N/A   Overcast
6:55 PM 33.8 °F 30.8 °F 32.0 °F 93% 29.88 in 10.0 mi West 3.5 mph - N/A   Mostly Cloudy
7:15 PM 32.0 °F 27.5 °F 32.0 °F 100% 29.90 in 10.0 mi West 4.6 mph - N/A   Clear
7:35 PM 32.0 °F 28.7 °F 32.0 °F 100% 29.90 in 10.0 mi West 3.5 mph - N/A   Clear
7:55 PM 32.0 °F 28.7 °F 32.0 °F 100% 29.90 in 10.0 mi West 3.5 mph - N/A   Clear
8:15 PM 32.0 °F 27.5 °F 30.2 °F 93% 29.91 in 10.0 mi WSW 4.6 mph - N/A   Clear
8:35 PM 32.0 °F 26.4 °F 30.2 °F 93% 29.92 in 10.0 mi WSW 5.8 mph - N/A   Clear
8:55 PM 32.0 °F 26.4 °F 32.0 °F 100% 29.92 in 10.0 mi West 5.8 mph - N/A   Clear
9:15 PM 32.0 °F 25.6 °F 32.0 °F 100% 29.93 in 10.0 mi West 6.9 mph - N/A   Clear
9:35 PM 32.0 °F 26.4 °F 30.2 °F 93% 29.93 in 10.0 mi West 5.8 mph - N/A   Clear
9:55 PM 32.0 °F 27.5 °F 30.2 °F 93% 29.93 in 10.0 mi West 4.6 mph - N/A   Clear
10:15 PM 32.0 °F 27.5 °F 30.2 °F 93% 29.93 in 10.0 mi WSW 4.6 mph - N/A   Clear
10:35 PM 32.0 °F 27.5 °F 30.2 °F 93% 29.93 in 10.0 mi WSW 4.6 mph - N/A   Clear
10:55 PM 32.0 °F 27.5 °F 30.2 °F 93% 29.94 in 10.0 mi WSW 4.6 mph - N/A   Clear
11:15 PM 32.0 °F 26.4 °F 30.2 °F 93% 29.95 in 10.0 mi WSW 5.8 mph - N/A   Clear
11:35 PM 32.0 °F 26.4 °F 30.2 °F 93% 29.95 in 10.0 mi WSW 5.8 mph - N/A   Clear
11:55 PM 32.0 °F 24.8 °F 30.2 °F 93% 29.95 in 10.0 mi WSW 8.1 mph - N/A   Clear